Lapse_Rate
6.9 6.6 6.4 6.3 6.3 6.3 6.3 6.3 6.4 6.4 6.6 6.6 6.2 6.1 6.5 6.5 6.3 6.1 6.3 6.2 6.3 6.2 6.0 5.8 5.9 5.6 5.8 6.0 6.1 6.1 6.1 6.2 5.1 5.6 5.6 5.2 5.5 5.7 5.7 6.1 6.0 6.2 6.1
7.0 6.6 6.4 6.5 6.5 6.4 6.6 6.8 6.9 6.7 6.6 6.4 6.1 6.0 6.1 6.2 6.1 6.2 6.2 6.2 6.3 6.6 6.4 6.0 6.3 6.2 6.0 6.0 6.2 6.5 6.3 6.0 6.1 5.8 6.0 5.7 5.5 6.1 6.0 5.8 5.8 5.7 5.5
7.1 7.0 7.0 6.9 6.8 6.6 6.3 6.4 6.4 6.6 6.6 6.3 6.3 6.3 6.1 6.1 6.3 6.3 6.4 6.4 6.2 6.3 6.6 6.6 6.1 5.9 6.3 6.3 6.2 6.3 6.5 6.4 6.2 5.9 5.9 6.0 6.0 5.7 6.0 5.9 5.9 5.9 5.7
6.9 6.8 6.8 6.7 6.7 6.7 6.6 6.3 6.2 6.3 6.3 6.3 6.1 6.0 6.1 6.0 6.0 6.2 6.2 6.0 6.3 6.2 6.2 6.4 6.5 6.2 6.2 6.2 6.3 6.1 6.2 6.1 6.3 6.2 6.2 6.1 5.7 5.5 5.2 5.8 5.7 5.4 5.3
6.6 6.6 6.5 6.6 6.5 6.5 6.4 6.3 6.2 6.1 5.9 5.7 5.9 5.9 5.7 5.7 5.7 5.8 6.0 6.1 6.0 6.2 6.3 6.2 6.3 6.3 6.2 6.1 6.1 6.2 6.2 6.0 5.9 5.9 6.3 6.2 6.1 5.6 5.2 5.2 5.2 5.6 5.3
6.6 6.6 6.5 6.4 6.5 6.6 6.6 6.3 6.0 5.7 5.5 5.4 5.3 5.2 5.5 5.4 5.5 5.7 5.6 5.7 5.7 5.7 6.1 6.2 6.1 6.1 6.2 6.1 5.9 5.8 5.7 5.7 5.9 5.9 5.8 5.9 6.2 6.5 5.9 5.4 5.3 5.5 5.5
6.5 6.4 6.3 6.1 6.0 6.1 6.1 5.9 5.8 5.7 5.3 5.0 4.9 4.8 4.8 4.9 5.2 5.3 5.4 5.4 5.5 5.4 5.7 6.1 6.3 6.3 6.6 6.4 6.2 5.9 5.7 5.8 5.6 5.7 5.5 5.6 5.6 6.1 6.2 5.8 5.6 5.6 5.9
6.3 6.3 6.2 6.0 6.0 6.0 5.8 5.7 5.6 5.6 5.5 5.4 4.8 4.7 4.9 4.9 5.3 5.6 5.3 5.2 5.3 5.2 5.3 5.5 5.8 6.2 6.3 6.1 6.1 6.0 5.9 5.9 6.0 5.8 5.6 5.6 5.5 5.4 5.5 6.0 5.3 5.3 5.8
6.0 5.9 6.1 6.3 6.1 5.9 5.9 5.8 5.6 5.5 5.4 5.2 5.3 5.6 5.4 5.4 5.4 5.6 5.8 5.4 5.4 5.2 5.1 5.2 5.3 5.5 5.4 5.5 6.1 6.1 6.0 6.0 5.8 5.8 5.6 5.7 5.6 5.3 5.1 5.4 5.6 5.3 5.7
6.0 6.0 6.0 6.1 6.0 5.8 5.8 5.9 5.8 5.5 5.3 5.4 5.5 5.4 5.7 5.5 5.6 5.8 6.0 6.0 5.6 5.6 5.2 5.2 5.1 5.1 5.2 5.3 5.1 5.3 5.3 5.5 5.8 5.8 5.6 5.6 5.6 5.5 5.5 5.4 5.6 5.5 5.7
5.7 5.7 5.8 5.9 5.8 5.7 5.6 5.6 5.5 5.3 5.3 5.2 5.1 5.0 5.0 5.3 5.7 6.1 6.2 6.4 6.3 6.1 5.5 5.2 5.3 5.0 4.9 4.9 5.1 5.0 4.8 5.1 5.5 5.7 5.5 5.7 5.6 5.5 5.6 5.6 5.6 5.7 5.7
5.5 5.5 5.3 5.6 5.6 5.6 5.6 5.6 5.6 5.4 5.2 5.2 5.2 5.1 4.9 5.2 5.6 5.9 6.2 6.6 6.9 6.7 6.1 5.7 5.4 5.3 4.9 5.0 5.0 5.0 5.0 4.7 4.9 5.4 4.5 5.2 5.6 5.5 5.7 5.7 5.6 5.7 5.9
5.0 5.1 5.4 5.2 5.5 5.7 5.8 5.8 5.8 5.6 5.4 5.2 5.2 5.3 5.2 4.7 4.2 5.2 6.4 6.5 6.8 6.6 6.3 6.1 5.7 5.6 5.1 4.8 5.1 4.5 4.4 4.2 4.3 4.4 4.8 5.3 5.6 5.5 5.3 5.6 5.8 6.0 5.7
4.6 4.7 4.6 5.0 5.4 5.7 5.3 5.3 5.3 5.2 5.3 5.2 5.1 5.3 5.4 5.3 4.5 4.5 4.8 5.1 5.5 6.3 6.2 5.9 5.9 5.3 5.3 4.9 4.8 4.4 4.6 4.5 4.4 4.7 4.6 4.9 5.4 5.3 5.4 5.6 5.6 5.9 5.6
4.3 4.3 4.3 4.9 5.3 5.9 5.8 5.5 5.0 4.9 5.1 4.9 5.1 5.1 5.0 5.3 5.2 4.5 4.8 5.1 5.0 5.8 5.8 6.2 6.3 6.2 6.0 5.7 5.3 4.9 5.0 4.7 4.5 4.5 4.6 5.2 5.0 5.2 5.5 5.8 5.6 5.6 5.4
4.5 4.4 4.5 4.6 4.9 5.3 5.2 5.3 5.1 5.1 5.3 5.2 5.1 5.0 5.2 5.2 5.7 5.7 5.2 5.0 5.5 5.4 5.4 5.9 5.8 6.0 5.8 5.6 5.6 5.6 5.4 5.0 4.9 4.6 5.0 4.7 4.7 5.2 5.5 6.0 5.9 5.6 5.4
4.4 4.5 4.5 4.4 4.4 4.5 4.7 4.7 4.6 5.4 5.1 5.1 5.2 5.2 5.0 5.2 5.7 6.1 6.0 5.6 5.4 5.4 5.3 5.7 5.8 6.1 6.1 6.2 6.1 6.2 5.7 5.5 5.2 4.8 5.2 5.0 4.6 4.8 5.3 5.9 5.9 5.6 5.3
3.7 3.8 3.9 4.2 4.1 3.9 4.1 4.1 4.1 4.3 5.2 5.3 5.3 5.3 5.5 5.4 5.7 6.3 6.1 5.8 5.7 5.9 5.9 5.9 6.1 6.1 6.3 6.4 6.5 6.4 6.1 5.9 5.7 5.7 5.5 5.3 5.1 5.2 5.4 5.7 5.9 5.7 5.4
4.1 4.1 4.0 4.0 4.0 4.1 4.0 3.9 4.0 4.4 4.8 5.2 5.6 5.6 5.6 5.8 5.9 6.2 6.4 6.2 6.2 6.0 5.9 5.8 5.8 6.0 6.1 6.2 6.4 6.5 6.1 6.1 6.0 5.7 5.5 5.6 5.5 5.8 5.8 5.8 6.1 5.9 5.7
4.3 4.2 4.1 4.0 3.9 3.8 3.8 3.9 4.3 4.7 5.1 5.4 5.6 5.9 5.9 5.7 5.7 5.9 6.1 6.1 6.0 5.8 5.5 5.5 5.6 5.8 6.1 6.0 6.2 6.5 6.3 6.2 6.1 6.0 5.7 5.6 5.8 6.0 5.9 6.0 6.2 6.3 6.3
4.8 5.0 5.0 4.6 4.3 4.4 4.5 4.4 4.7 5.1 5.4 5.6 5.8 5.7 5.7 5.7 5.8 5.7 6.0 6.0 6.0 6.0 5.7 5.3 5.2 5.5 5.7 5.8 5.9 6.2 6.3 6.2 6.2 6.1 6.2 5.9 5.8 5.3 5.9 6.1 6.5 6.3 6.4
5.0 5.1 5.1 5.1 4.8 4.7 4.7 4.8 5.2 5.4 5.6 5.7 5.7 5.7 5.9 5.9 6.0 6.2 6.0 5.9 6.0 6.0 6.0 5.4 5.1 5.3 5.5 5.6 5.6 5.6 6.2 6.1 6.1 6.2 6.2 6.1 6.0 6.2 6.0 6.3 6.4 6.2 6.2
4.9 4.8 4.8 4.8 4.7 4.8 5.2 5.4 5.4 5.5 5.6 5.5 5.6 5.7 6.0 6.0 6.1 6.2 6.1 6.0 5.9 5.7 6.3 5.6 5.7 4.9 5.1 5.1 4.9 5.6 5.9 5.9 6.2 6.3 6.3 6.3 6.1 6.0 5.8 5.7 5.7 5.9 5.9
5.0 5.1 5.1 5.1 5.0 5.2 5.6 5.6 5.3 5.5 5.7 5.5 5.7 5.7 5.7 5.9 6.1 6.2 6.1 6.1 6.1 6.1 6.1 6.1 6.0 5.5 5.0 5.1 5.1 5.3 6.0 6.4 6.3 6.2 6.3 6.3 6.0 5.9 5.8 5.7 5.5 5.6 5.7
5.2 4.9 5.1 5.6 5.8 5.6 5.9 5.8 5.5 5.5 5.5 5.8 5.7 5.7 5.9 6.0 5.3 6.1 6.2 5.9 5.9 5.8 6.0 5.5 5.7 5.6 5.8 6.0 6.0 5.6 5.9 6.3 6.2 6.1 6.4 6.7 6.4 5.9 5.7 5.7 5.6 5.5 5.6
4.7 4.9 5.2 5.2 5.7 5.8 6.0 5.9 5.4 5.8 5.7 5.8 5.8 5.8 5.8 5.9 6.1 5.8 6.0 5.9 6.0 5.9 5.8 5.8 5.4 5.4 5.5 5.9 6.3 6.1 6.0 6.0 6.1 6.1 6.2 6.4 6.1 5.8 5.7 5.5 5.6 5.5 5.3
Wind_Speed
5 3 3 5 5 5 6 7 7 8 9 10 10 9 11 11 10 10 12 12 12 9 12 8 11 10 10 7 6 9 8 8 8 8 6 4 5 1 7 9 9 12 18
6 6 6 3 2 6 9 7 4 6 8 9 10 11 11 11 10 12 13 14 14 14 13 13 13 12 13 11 8 10 9 9 9 8 8 8 3 6 7 8 8 18 8
4 3 3 2 4 4 4 6 5 7 8 9 10 8 9 11 12 12 13 14 14 14 14 15 13 14 12 13 11 11 10 9 8 9 9 8 9 8 7 8 8 9 15
5 6 5 5 6 8 9 9 9 8 9 9 10 9 11 10 11 11 13 15 14 14 15 14 14 14 14 15 13 13 11 10 11 9 9 10 10 10 8 8 6 8 8
4 6 7 7 8 9 9 10 10 10 10 10 10 10 11 12 10 10 12 14 16 15 15 15 15 17 18 17 11 13 13 11 12 11 11 10 11 9 9 9 9 4 4
6 8 7 7 8 9 10 10 10 11 11 11 11 11 11 10 10 5 9 14 15 13 15 14 15 14 15 17 18 19 15 15 14 12 11 12 12 9 9 9 6 4 3
7 8 8 8 9 9 10 11 11 11 12 11 12 12 12 12 12 11 10 11 13 12 12 11 11 13 13 16 17 16 17 15 19 14 15 14 9 9 10 7 8 8 8
9 9 9 10 10 10 10 11 12 11 11 11 11 12 12 10 13 12 12 11 12 13 13 11 13 16 12 11 15 15 17 19 18 14 17 15 15 10 8 7 8 6 8
11 10 10 11 12 12 13 12 12 12 11 11 12 13 13 13 11 13 10 13 13 15 15 15 15 15 12 1 8 11 13 14 13 18 20 16 14 11 11 9 9 11 11
12 12 11 12 13 14 14 14 13 13 13 13 14 14 14 14 15 13 12 12 15 12 13 14 14 16 13 10 12 13 13 13 11 14 13 17 17 14 14 11 10 12 11
14 14 13 13 14 15 15 14 15 14 15 14 14 13 14 15 16 13 14 13 14 13 13 12 10 15 18 16 15 14 14 9 11 9 13 11 12 13 13 13 14 13 12
13 14 14 14 14 14 15 14 15 14 14 14 14 14 14 15 18 18 17 19 18 14 14 12 12 3 12 11 9 13 13 11 9 8 8 7 10 10 9 12 16 16 14
13 14 15 16 15 14 14 14 14 14 13 13 11 11 14 13 12 18 19 21 22 16 14 9 8 9 12 10 15 14 8 10 11 9 7 10 9 10 12 9 11 16 14
16 14 14 15 14 15 13 12 12 10 12 12 12 13 12 13 13 11 9 6 17 12 15 13 14 12 11 9 4 11 11 12 12 12 11 10 10 9 11 8 7 7 9
12 12 11 10 12 13 12 11 11 11 11 11 9 11 11 10 12 3 6 10 8 5 9 8 7 9 10 9 12 13 12 12 12 12 11 10 10 9 11 9 9 8 10
9 8 8 9 9 10 12 13 16 14 15 17 15 14 15 16 17 19 15 1 6 6 10 10 9 9 10 9 10 12 11 14 11 11 12 10 10 10 9 9 9 9 11
9 10 8 9 9 11 13 13 13 15 13 15 17 19 17 19 18 18 15 15 6 5 11 12 12 11 11 10 9 11 12 13 10 10 9 9 10 10 7 10 9 10 11
13 14 9 10 11 11 12 12 11 11 12 13 14 14 16 18 19 20 14 4 10 9 12 14 14 13 13 11 11 10 11 11 8 10 9 8 7 8 10 10 10 11 13
11 10 11 10 10 12 13 15 14 13 11 11 13 15 15 17 19 15 13 9 13 13 14 14 13 14 14 13 12 12 12 10 10 9 9 9 9 9 11 12 13 14 14
13 18 14 11 11 11 11 11 11 12 12 11 12 15 14 10 13 12 10 11 12 14 15 13 12 13 13 13 10 11 11 11 12 12 12 11 10 11 13 14 13 12 12
10 11 19 11 10 10 10 11 11 11 11 11 12 14 17 11 14 13 12 11 11 12 14 14 12 12 12 12 11 12 11 12 13 12 12 12 12 12 13 12 12 12 12
11 12 11 12 11 11 11 11 11 11 11 11 13 14 18 10 12 13 14 14 11 12 12 10 12 11 13 12 11 14 14 14 15 13 13 13 13 10 9 9 10 10 11
12 13 12 11 10 15 12 11 9 10 10 11 13 12 11 11 11 13 13 13 11 12 11 9 11 13 13 13 12 12 14 14 14 13 13 13 13 12 12 12 12 12 11
13 12 11 11 9 10 11 10 10 13 11 11 11 10 10 11 13 13 12 12 11 13 12 11 11 16 14 13 11 10 8 9 10 12 13 11 13 12 13 12 13 15 12
12 12 12 12 10 10 11 10 10 11 10 10 10 9 10 11 12 10 12 11 13 13 10 14 12 12 13 13 17 15 11 6 14 13 10 12 13 15 12 10 12 13 15
12 12 11 10 10 9 9 10 10 10 10 9 9 10 10 11 11 12 11 12 11 9 15 13 9 16 18 15 15 16 11 11 10 10 11 12 11 11 10 14 18 11 12
Wind_Direction
149 117 136 201 228 223 241 259 275 290 289 278 265 253 272 264 249 233 229 245 209 234 256 232 211 240 243 236 231 269 255 261 254 268 277 131 129 215 286 280 239 222 211
139 166 164 159 241 246 219 245 238 287 290 281 271 271 272 269 256 240 235 237 224 215 216 235 226 224 225 235 236 239 253 262 291 265 272 291 278 191 214 251 267 283 303
174 181 85 354 248 269 259 258 313 306 306 300 301 276 265 274 272 257 238 240 238 234 223 218 223 232 234 237 221 242 228 243 242 256 265 255 245 229 200 229 244 253 271
12 354 351 303 305 319 321 304 299 299 293 296 300 308 304 283 264 261 253 238 235 233 234 229 223 226 227 233 240 235 246 240 227 235 247 260 246 235 227 236 230 219 241
332 309 299 303 307 300 291 287 282 282 285 289 284 286 290 288 280 270 259 262 241 240 237 228 229 222 210 221 230 235 241 239 243 230 224 236 253 251 239 223 219 228 277
278 277 289 278 273 278 281 285 287 281 278 279 274 278 277 280 295 291 284 271 259 261 255 255 248 230 228 221 217 222 226 231 239 249 242 233 231 237 242 252 242 197 234
291 295 294 290 289 289 288 286 276 275 278 281 283 280 276 279 280 239 226 271 270 263 265 280 261 243 244 240 223 231 235 238 235 238 250 263 262 231 243 234 249 260 260
287 290 292 291 292 290 286 285 281 271 268 270 275 276 277 272 269 249 221 254 272 264 271 270 266 265 261 266 244 242 238 237 239 241 241 247 256 259 271 247 259 250 258
287 289 291 295 297 296 291 284 279 273 269 270 271 270 273 274 267 238 229 269 266 263 263 268 265 265 270 339 292 261 256 257 242 220 233 248 244 244 248 238 229 237 240
299 297 305 307 298 294 291 287 281 275 270 267 268 265 261 264 259 241 222 261 266 261 258 254 230 242 241 237 263 264 261 258 255 251 231 239 240 240 232 233 231 236 240
307 304 300 296 294 290 284 277 273 271 268 271 271 271 272 271 269 255 212 245 258 267 263 262 258 213 218 214 221 248 255 266 266 282 250 234 234 228 232 230 227 241 249
302 297 299 295 291 292 296 289 284 280 274 270 269 268 264 254 242 239 229 218 250 257 265 270 274 166 200 207 219 237 245 267 271 250 290 251 231 224 228 241 218 221 237
298 291 286 287 291 288 285 289 287 276 268 267 265 274 280 277 262 224 223 211 224 236 249 258 111 169 188 203 219 239 223 241 247 246 229 260 241 244 236 256 235 203 217
300 296 296 295 287 292 289 281 272 276 270 282 284 279 276 279 287 275 278 242 244 225 243 258 252 233 210 209 272 241 234 238 237 235 239 228 229 222 233 227 223 213 211
307 301 292 290 288 296 289 285 283 282 282 290 285 292 288 282 271 16 334 322 320 319 308 279 258 220 221 222 234 235 243 222 229 240 242 224 236 231 235 226 228 207 215
315 309 312 302 294 289 290 291 270 247 261 264 257 257 272 276 292 296 305 307 351 7 298 277 270 254 248 240 239 239 235 236 220 229 236 236 235 236 228 219 215 209 216
305 299 298 288 284 283 290 292 294 290 258 243 247 247 241 256 272 271 270 281 214 211 265 273 268 267 264 242 230 238 244 238 252 228 218 222 235 242 205 217 214 218 220
299 283 278 277 283 287 280 281 286 279 293 289 286 251 247 241 251 257 253 198 268 226 244 250 251 252 248 241 238 241 242 247 233 232 225 217 212 238 235 234 232 215 226
303 297 297 294 289 290 295 291 290 291 283 284 284 280 266 244 247 251 170 241 256 252 248 238 234 241 243 245 232 231 244 254 226 216 221 225 222 220 228 238 237 220 221
313 305 295 290 288 286 284 281 280 279 283 283 282 283 282 295 270 257 227 226 235 243 250 244 229 235 241 235 223 221 232 232 240 237 232 229 236 215 231 241 244 239 223
306 304 303 295 292 287 284 286 285 281 279 279 278 278 286 286 281 275 269 249 242 249 234 240 241 228 238 239 232 228 233 238 234 234 229 237 237 231 209 235 232 237 235
313 304 299 308 310 300 293 294 289 286 281 283 285 274 264 263 265 262 263 258 251 231 237 253 235 234 233 226 225 224 227 229 228 235 236 232 240 241 245 232 225 249 239
308 306 312 301 299 301 296 290 294 288 289 292 288 280 262 261 260 260 254 260 252 240 238 223 251 245 239 245 235 224 227 229 225 232 241 238 235 239 235 237 240 238 232
325 313 305 304 295 302 297 293 296 289 285 290 292 301 304 305 265 251 258 259 256 264 244 240 241 246 246 243 241 232 216 227 252 262 256 242 252 254 240 229 235 236 236
320 315 310 306 302 302 299 297 294 292 296 295 299 302 306 306 312 300 273 264 253 254 247 247 238 217 225 247 256 252 266 250 224 237 251 252 249 248 251 238 228 231 234
327 324 320 314 310 307 303 299 299 299 300 300 303 308 309 310 314 310 315 306 282 268 261 254 242 235 234 243 247 251 247 248 237 234 250 257 253 253 248 235 230 224 226